Regional Weather Roundup
Issued by NWS

Home | Current Version | Previous Version | Text Only | Print | Product List | Glossary Off
Versions: 1 2 3 4 5 6 7 8 9 10 11 12 13 14 15 16 17 18 19 20 21 22 23 24 25 26 27 28 29 30 31 32 33 34 35 36 37 38 39 40 41 42 43 44 45 46 47 48 49 50

000
ASUS43 KTOP 241308
RWRKS

WEATHER ROUNDUP FOR KANSAS
NATIONAL WEATHER SERVICE GOODLAND KS
700 AM CST TUE JAN 24 2017

NOTE:  "FAIR" INDICATES FEW OR NO CLOUDS BELOW 12,000 FEET WITH NO
SIGNIFICANT WEATHER AND/OR OBSTRUCTIONS TO VISIBILITY.

KSZ001>006-013>018-027>032-041>047-241400-
NORTHWEST KANSAS

CITY           SKY/WX    TMP DP  RH WIND       PRES   REMARKS
GOODLAND       FOG       29  29 100 N14       29.42F VSB 3/4 WCI  18
HAYS           CLEAR     29  28  96 E10       29.45S WCI  20
HILL CITY      CLOUDY    32  32 100 E13       29.44R FOG     WCI  22
RUSSELL        CLEAR     31  29  92 E12       29.45S WCI  22
$$

KSZ061>065-074>080-084>089-241400-
SOUTHWEST KANSAS

CITY           SKY/WX    TMP DP  RH WIND       PRES   REMARKS
DODGE CITY     CLEAR     36  30  79 S9        29.42F
ELKHART          N/A     40  27  60 W13         N/A  WCI  32
GARDEN CITY    CLEAR     34  29  82 W10       29.41F WCI  26
GREAT BEND     CLEAR     31  29  92 SE9       29.45F
LIBERAL          N/A     39  28  65 SW12      29.47R WCI  32
PRATT          PTCLDY    33  31  90 S10       29.47S WCI  25
$$

KSZ066>073-081>083-090>101-241400-
SOUTHEAST KANSAS

CITY           SKY/WX    TMP DP  RH WIND       PRES   REMARKS
CHANUTE        CLEAR     40  32  73 SE12      29.63R WCI  33
COFFEYVILLE    CLEAR     41  34  76 SE8       29.62F
HUTCHINSON     CLEAR     36  31  82 SE7       29.50F
MEDICINE LODGE   N/A     35  31  85 SE7       29.49S
NEWTON         CLEAR     36  31  82 SE15      29.53F WCI  27
PARSONS        CLEAR     43  33  68 SE6       29.63S
WICHITA INTL   PTCLDY    38  32  79 S9        29.52F
WICHITA JABRA  CLEAR     39  33  79 S13       29.52F WCI  31
WICHITA MCCONL CLEAR     39  32  76 S10       29.53S WCI  32
WINFIELD       CLEAR     40  33  76 SE8       29.57S
$$

KSZ007>012-019>026-033>040-048>060-102>105-241400-
NORTHEAST KANSAS

CITY           SKY/WX    TMP DP  RH WIND       PRES   REMARKS
CONCORDIA      CLOUDY    34  32  92 E12       29.55F WCI  25
EMPORIA        CLEAR     35  31  85 E13       29.59F WCI  26
LAWRENCE       CLEAR     32  31  96 E10       29.70S WCI  24
MANHATTAN      CLEAR     35  31  85 E10       29.61S WCI  27
MARYSVILLE     CLOUDY    32  30  93 E16G24    29.62F WCI  21
OLATHE IND     CLEAR     33  30  88 E15       29.69F WCI  23
OLATHE EXE     CLEAR     31  30  96 E12       29.70F WCI  22
SALINA         MOCLDY    36  30  79 E16       29.53  WCI  26
TOPEKA BILLARD CLEAR     34  30  85 E14       29.67S WCI  25
TOPEKA FORBES  CLEAR     35  31  85 E12       29.65S WCI  27
$$




USA.gov is the U.S. government's official web portal to all federal, state and local government web resources and services.